Location: Koslow
(50.3020°N, 18.5663°E)
Time: 07:53:51
(UTC+00:00)

STARLINK-1357 - Pass Details

Date: 06 October 2020
Orbit: 548 x 551 km, 53.0° (Epoch: 31 October)

Event Time Altitude Azimuth Distance (km) Brightness Sun altitude
Exits shadow 02:16:25 54° 29° (NNE) 674 4.2 -25.4°
Drops below altitude 10° 02:20:05 10° 80° (E) 1,830 7.3 -24.9°
Sets 02:22:22 0° 85° (E) 2,725 8.4 -24.6°
